sat.trackr.live / text

‹ back to catalog

STARLINK-34707

NORAD 65176 · 2025-175C

PAYLOAD ACTIVE UNKNOWN

§ Identity

Operator
Country
US
Launch date
2025-08-14
Launch site
AFWTR
Launch vehicle
Mass (kg)
RCS (m²)

Purposes: comms

External: N2YO · Heavens-Above · Gunter

§ Orbital elements

Epoch: 2026-09-20T14:10:01.424928Z

Period
93.91 min
Inclination
97.2831°
Eccentricity
0.0002702
Mean motion
15.33451276 rev/d
Perigee alt
463.7 km
Apogee alt
467.4 km
Semi-major
6,843.7 km
B*
5.4716e-4
RAAN
132.5227°
Arg perigee
85.3934°
Mean anomaly
274.7617°
Rev number
6,214

§ Raw data

STARLINK-347071 65176U 25175C   26263.59029427  .00017635  00000+0  54716-3 0  99992 65176  97.2831 132.5227 0002702  85.3934 274.7617 15.33451276 62146

JSON: /api/v1/satellites/65176 · /tle

For live sub-satellite position, see the globe view (requires WebGL).

§ Visibility from observer

Set your observer location to see the next 7 days of passes ≥ 10°. The values pass through the URL so the page stays shareable.

No JS? Fill the form by hand. The geolocation button needs JavaScript.